Время (UTC), дата Ветер
(°,м/с) 
Видим.   Явления Облачность Т
(°С)
Тd
(°С)
f(%) Тe
(°С)
Pmin
(гПа)
dP
(гПа)
Po
(мм)
O2
(г/м3)
Тmin Tmax R s Состояние
почвы
00 01.01.12 070 (В) 10 км    10/5 1000 м средняя 
[Sc diur, vesp|Ac und]
+3.3 +1.8 90 +4  1013.7  -0.2  758  301           
03 01.01.12 080 (В) 10 км    10/3 1000 м средняя, верхняя 
[Sc|Ac trans|Ci fib]
+2.2 +1 92 +3  1012.8  -1  757  302           
06 01.01.12 070 (В) 10 км    9/6 1000 м средняя 
[Sc|Ac trans]
+3.1 +0.9 85 +4  1013.1  0.3  757  301  +2.1         
12 01.01.12 070 (В) 10 км    10/6 1000 м средняя 
[Sc|Ac As]
+8.1 +1.8 64 +9  1010.4  -1.3  755  295           
15 01.01.12 220 (ЮЗ) 10 км    10/10 1000 м 
[Sc]
+10.2 +1.1 53 +11  1011  0.6  755  293    +10.2       
18 01.01.12 280 (З) 4000 м  слаб. ливневой дождь  10/10 600 м кучево-дожд. 
[Cb cap]
+4.3 +3.1 92 +3  1013.2  2.2  757  300    +10.2       
21 01.01.12 280 (З) 2000 м  слаб. ливневой снег  10/10 300 м кучево-дожд. 
[Cb cap]
+1 +0.3 95 1015.7  2.4  759  305           
00 02.01.12 280 (З) 10 км  {ливн. осадки}  8/8 1000 м кучево-дожд. 
[Cb cap]
+1.9 -0.3 85 1018.3  2.6  761  305           
03 02.01.12 270 (З) 10 км    6/6 600 м 
[Sc]
+0.6 -1.3 87 -1  1020.1  1.8  762  307           
06 02.01.12 240 (ЮЗ) 10 км    9/9 600 м 
[Sc]
+1.3 -1.3 83 +1  1022.3  2.1  764  307  +0.5       
09 02.01.12 270 (З) 10 км  в посл. час крупа{ливн. осадки}  9/8 600 м средняя 
[St|Ac trans]
+2.4 -2.8 68 1023.1  0.8  764  306           
12 02.01.12 280 (З) 10 км  {ливн. осадки}  9/8 1000 м средняя 
[Sc|Ac trans]
+2.6 -4.9 58 +1  1023.9  0.8  765  306           
15 02.01.12 290 (З) 10 км    ясно 
+0.7 -5 66 1024.9  0.9  766  308    +2.9       
18 02.01.12 250 (З) 10 км    ясно 
-0.2 -5.1 69 -1  1025.3  0.5  766  310    +2.9  0.0     
21 02.01.12 220 (ЮЗ) 10 км    10/0 средняя, верхняя 
[Ac trans|Ci]
-0.3 -4.5 73 -1  1024.9  -0.4  766  309           
00 03.01.12 220 (ЮЗ) 10 км    10/8 600 м кучево-дожд., средняя 
[Cb cap|Ac und]
+0.8 -4.7 67 +1  1024.6  -0.3  766  308           
03 03.01.12 210 (ЮЗ) 2000 м  слаб. ливневой снег  10/10 600 м кучево-дожд. 
[Cb cap]
+0.8 -0.4 92 -1  1023.8  -0.8  765  307           
06 03.01.12 тихо ()   10 км  {ливн. осадки}  8/8 600 м 
[Sc diur, vesp]
+1.2 -0.2 90 +1  1025  1.1  766  307  -0.4    0.5     
09 03.01.12 310 (СЗ) 10 км    1/0 средняя 
[Ac trans]
+6.3 +1 69 +6  1025.3  0.3  766  302           
12 03.01.12 270 (З) 10 км    4/4 1000 м 
[Cu med, cong]
+7.2 +0.6 63 +7  1025.6  0.3  766  301           
15 03.01.12 200 (Ю) 10 км    9/9 600 м 
[Sc]
+5 +0.9 75 +6  1026.2  0.6  767  303    +7.7       
18 03.01.12 200 (Ю) 10 км    9/9 600 м 
[Sc]
+5.7 +2.3 79 +5  1025.7  -0.5  767  302    +7.7  0.4     
21 03.01.12 210 (ЮЗ) 10 км    10/10 1000 м 
[Sc]
+6 +2.9 81 +7  1024.4  -1.3  766  301           
00 04.01.12 230 (ЮЗ) 10 км    10/10 600 м 
[Sc]
+7 +2 70 +7  1024  -0.4  765  300           
03 04.01.12 260 (З) 10 км    10/10 600 м 
[Sc]
+6.9 +1.4 68 +7  1022.7  -1.2  764  300           
06 04.01.12 230 (ЮЗ) 10 км    9/9 1000 м 
[Sc]
+7.7 +2 67 +7  1022.9  0.2  764  299  +5         
09 04.01.12 230 (ЮЗ) 10 км    10/6 1000 м средняя 
[Sc|Ac und]
+8.8 +2.2 63 +8  1022.2  -0.8  764  298           
12 04.01.12 240 (ЮЗ) 10 км    9/8 1000 м средняя 
[Sc|Ac trans]
+9.4 +2.1 60 +9  1021.4  -0.7  763  297           
15 04.01.12 200 (Ю) 10 км    3/0 средняя 
[Ac trans]
+7.1 +1.7 68 +7  1021.9  0.5  764  300    +9.5       
18 04.01.12 240 (ЮЗ) 10 км    5/0 верхняя 
[Ci fib]
+5.4 +2 79 +6  1021.7  -0.2  764  301    +9.5       
21 04.01.12 070 (В) 10 км    ясно 
+3.1 +1.1 87 +4  1021.1  -0.7  763  304           
00 05.01.12 110 (В) 10 км    ясно 
+1.3 +0.3 93 +2  1020.1  -0.9  762  306           
03 05.01.12 090 (В) 10 км    ясно 
+2.7 +0.4 85 +3  1018.2  -1.9  761  303           
06 05.01.12 040 (СВ) 10 км    8/0 верхняя 
[Ci fib]
+2.4 +0.1 85 +3  1017.8  -0.5  761  304  +1         
09 05.01.12 080 (В) 10 км    10/0 верхняя 
[Ci fib]
+9 -0.7 51 +10  1016.1  -1.6  759  296           
12 05.01.12 210 (ЮЗ) 10 км    10/0 верхняя 
[Ci fib]
+13.3 -1.6 36 +13  1013.6  -2.4  758  291           
15 05.01.12 150 (ЮВ) 10 км    8/0 верхняя 
[Ci fib]
+8.4 +2.9 68 +9  1012.5  -1.1  757  295    +13.5       
18 05.01.12 070 (В) 10 км    10/0 верхняя 
[Cs]
+5.5 +2.3 80 +6  1010.9  -1.7  755  298    +13.5       
21 05.01.12 080 (В) 10 км    10/0 средняя, верхняя 
[Ac trans|Cc]
+3.3 +1.7 89 +4  1009.4  -1.5  754  300           
00 06.01.12 тихо ()   10 км    8/3 1000 м средняя, верхняя 
[Sc|Ac trans|Ci fib]
+3.1 +0.6 84 +3  1009  -1.5  754  300           
03 06.01.12 060 (СВ) 10 км    10/3 1000 м средняя, верхняя 
[Sc|Ac trans|Ci fib]
+2.6 +0.5 86 +3  1007.8  -1.2  753  300           
06 06.01.12 070 (В) 10 км    10/8 1000 м средняя, верхняя 
[Sc|Ac trans|Ci fib]
+1.9 +0 87 +3  1008.6  0.7  754  302  +2.1         
09 06.01.12 090 (В) 10 км    10/4 1000 м средняя, верхняя 
[Sc|Ac trans|Ci sp]
+8.4 +1.5 62 +9  1007.8  -0.7  753  294           
12 06.01.12 200 (Ю) 10 км    8/0 средняя, верхняя 
[Ac trans|Cc]
+13.8 +0.9 41 +15  1007.1  -0.6  753  289           
15 06.01.12 180 (Ю) 10 км    ясно 
+10.2 -1.4 44 +11  1008.8  -0.6  754  293    +14.7       
18 06.01.12 050 (СВ) 10 км    ясно 
+6.3 -0.3 63 +7  1009  0.1  754  297    +14.7       
21 06.01.12 080 (В) 10 км    ясно 
+4.5 +0.1 73 +4  1009.4  0.4  754  299           
00 07.01.12 080 (В) 10 км    10/0 верхняя 
[Ci]
+4.2 -1.7 65 +5  1009.8  0.4  755  300           
03 07.01.12 090 (В) 10 км    9/0 средняя, верхняя 
[Ac trans|Ci fib]
+2.5 -2 72 +3  1009.7  -0.2  755  301           
06 07.01.12 060 (СВ) 10 км    10/0 средняя, верхняя 
[Ac trans|Cc]
+2.8 -2.3 69 +4  1011  -0.2  755  302  +2.4         
09 07.01.12 060 (СВ) 10 км    9/0 средняя, верхняя 
[Ac trans|Ci]
+6.4 -0.8 60 +6  1011.3  0.3  756  298           
12 07.01.12 070 (В) 10 км    10/8 1000 м средняя 
[Sc|Ac und]
+7.6 +1 63 +9  1011  -0.2  755  296           
15 07.01.12 090 (В) 10 км    10/8 1000 м средняя 
[Sc|Ac und]
+7 +1.5 68 +8  1011.6  0.6  756  297    +7.7       
18 07.01.12 110 (В) 10 км    10/10 600 м кучево-дожд. 
[Cb cap]
+6.6 +1.7 71 +6  1011.6  756  297    +7.7       
21 07.01.12 060 (СВ) 10 км    10/0 средняя 
[As trans]
+6.6 +1.8 71 +8  1010.7  -0.9  755  297           
00 08.01.12 070 (В) 10 км    10/10 600 м 
[Sc]
+5.1 +1.3 76 +6  1010.8  0.2  755  299           
03 08.01.12 070 (В) 10 км  {дождь}  10/10 600 м 
[St]
+4.8 +0.7 75 +6  1009.8  -1  755  299           
06 08.01.12 060 (СВ) 10 км  {дождь}  10/4 1000 м средняя 
[Sc|Ac As]
+4.2 +0.6 77 +5  1010.4  0.5  755  299  +4.5    0.0     
09 08.01.12 090 (В) 10 км    10/5 1000 м средняя 
[Sc|Ac As]
+6.6 +0.9 67 +6  1010.1  -0.3  755  297           
12 08.01.12 050 (СВ) 10 км    10/10 1000 м 
[Sc]
+8.2 +3.1 70 +9  1009.4  -0.7  754  295           
15 08.01.12 090 (В) 10 км    10/8 1000 м средняя 
[Sc|Ac und]
+6.4 +1.5 71 +5  1010.4  755  297    +8.6       
18 08.01.12 060 (СВ) 10 км    10/0 средняя, верхняя 
[Ac trans|Ci]
+4.7 +1.2 78 +4  1009.8  -0.7  755  299    +8.6       
21 08.01.12 060 (СВ) 10 км    10/3 1500 м средняя, верхняя 
[Sc|Ac trans|Cs]
+4 +0.6 78 +4  1009.7  755  300           
00 09.01.12 080 (В) 10 км    10/0 средняя, верхняя 
[Ac trans|Cs]
+3.3 +0.2 80 +4  1009.7  755  300           
03 09.01.12 070 (В) 10 км    10/0 средняя 
[Ac und]
+2.7 +0.2 84 +2  1009.1  -0.6  754  301           
06 09.01.12 070 (В) 10 км    10/3 1000 м средняя, верхняя 
[Sc|Ac trans|Ci fib]
+3.3 +0.4 81 +3  1009.6  0.5  754  300  +2.7         
09 09.01.12 090 (В) 10 км    10/4 1000 м средняя, верхняя 
[Sc|Ac trans|Ci fib]
+5.6 +1 72 +5  1009.1  0.5  754  298           
12 09.01.12 060 (СВ) 10 км    10/5 1000 м средняя 
[Sc|Ac und]
+6.1 +2.7 79 +6  1008.7  -0.4  754  297           
15 09.01.12 080 (В) 10 км    10/5 1000 м средняя, верхняя 
[Sc|Ac trans|Ci fib]
+5.8 +3.5 85 +6  1009.8  1.1  755  297    +6.2       
18 09.01.12 080 (В) 10 км    10/8 1000 м средняя 
[Sc|Ac und]
+4.5 +2.4 86 +4  1011  1.2  755  299    +6.2       
21 09.01.12 090 (В) 10 км  слаб. дождь  10/10 600 м 
[Sc]
+4 +2 87 +4  1011.8  0.9  756  300           
00 10.01.12 080 (В) 10 км  в посл. час ливневой дождь{снег}  10/10 600 м кучево-дожд. 
[Cb cap]
+3.6 +2.7 94 +4  1012  0.2  756  300           
03 10.01.12 210 (ЮЗ) 4000 м  слаб. ливневой дождь  10/10 300 м кучево-дожд. 
[Cb cap]
+4.9 +4.2 95 +5  1014.1  2.1  758  299           
06 10.01.12 200 (Ю) 10 км  {ливн. осадки}  9/6 600 м средняя, верхняя 
[Sc|Ac trans|Cc]
+6.3 +3.8 84 +5  1016.5  2.3  760  299  +3.4       
09 10.01.12 230 (ЮЗ) 10 км    8/5 600 м средняя, верхняя 
[Cu med, cong|Ac trans|Ci fib]
+9.5 +2.1 60 +9  1017.4  0.9  760  296           
12 10.01.12 220 (ЮЗ) 10 км    6/5 600 м средняя 
[Cu Sc|Ac cast]
+9.3 +1.9 60 +8  1018.2  0.8  761  296           
15 10.01.12 210 (ЮЗ) 10 км    8/8 600 м 
[Sc]
+6.7 +1.9 71 +8  1019.7  1.5  762  299    +10.6       
18 10.01.12 тихо ()   10 км    8/8 600 м 
[Sc]
+4 +1.4 83 +4  1020.3  0.5  762  303    +10.6       
21 10.01.12 320 (СЗ) 10 км    4/4 1000 м 
[Sc]
+2.9 +1.3 89 +4  1020.2  0.1  762  304           
00 11.01.12 тихо ()   10 км    9/9 1000 м 
[Sc]
+4.5 +1.7 82 +5  1020.3  0.2  762  302           
03 11.01.12 тихо ()   10 км    10/10 600 м 
[Sc]
+3.8 +1.8 87 +4  1019.8  -0.6  762  303           
06 11.01.12 090 (В) 10 км    10/10 600 м 
[Sc]
+4.5 +2 84 +5  1020.2  0.5  762  302  +2.9         
09 11.01.12 110 (В) 10 км    9/8 1000 м средняя 
[Sc|Ac trans]
+6.9 +2 71 +7  1019.3  -0.9  762  299           
12 11.01.12 030 (СВ) 10 км    10/10 1000 м 
[Sc]
+7.3 +2.2 70 +8  1018.7  -0.6  761  298           
15 11.01.12 020 (С) 10 км    10/10 1000 м 
[Sc]
+6.4 +2.8 78 +7  1019.1  0.4  762  299    +7.4       
18 11.01.12 тихо ()   10 км  слаб. ливневой дождь  10/10 600 м кучево-дожд. 
[Cb cap]
+5.2 +2.2 81 +5  1019.4  0.6  762  301    +7.5       
21 11.01.12 020 (С) 10 км  {ливн. осадки}  10/6 1000 м средняя 
[Sc|Ac trans]
+4.5 +3 90 +5  1018.9  -0.5  761  301           
00 12.01.12 050 (СВ) 10 км  {ливн. осадки}  10/10 300 м 
[St]
+3.6 +2.3 91 +4  1019.4  0.5  762  303           
03 12.01.12 330 (СЗ) 4000 м  дымка  10/10 300 м 
[St]
+2.8 +1.5 91 +4  1019  -0.4  761  303           
06 12.01.12 320 (СЗ) 2000 м  дымка  10/10 300 м 
[St]
+2.8 +2 94 +4  1019.7  0.7  762  304  +2.8         
09 12.01.12 300 (СЗ) 4000 м  дымка{туман}  10/10 200 м 
[St]
+3.5 +1.3 85 +4  1020.5  763  303           
12 12.01.12 290 (З) 10 км  {туман}  10/10 300 м 
[St]
+4.4 +0.7 77 +4  1020.5  763  302           
15 12.01.12 300 (СЗ) 10 км    10/10 300 м 
[St]
+3.8 +1.2 83 +3  1021.2  0.7  763  303           
18 12.01.12 290 (З) 10 км    9/9 600 м 
[St]
+2.6 -0.8 78 +3  1021.3  0.1  763  305    +7.4       
21 12.01.12 310 (СЗ) 10 км    10/10 300 м 
[St]
+1.2 -3.1 73 +1  1021.5  0.1  763  307           
00 13.01.12 тихо ()   10 км    10/10 300 м 
[St]
+1.1 -3.3 72 +1  1020.4  -1  762  306           
06 13.01.12 160 (Ю) 10 км    8/5 1000 м средняя 
[Sc|Ac trans]
+1.6 -1.1 82 +2  1019.2  -0.2  762  305  +0.9         
09 13.01.12 230 (ЮЗ) 10 км    3/0 средняя 
[Ac trans]
+7.2 -1.3 55 +6  1017.1  -2  760  299           
12 13.01.12 220 (ЮЗ) 10 км    9/6 1000 м средняя 
[Sc|Ac trans]
+7.9 -0.2 57 +7  1015.3  -2.2  759  297           
15 13.01.12 220 (ЮЗ) н/о    н/о 
+5.6 +0.8 71 +5  1014.8  758  299           
18 13.01.12 200 (Ю) н/о    н/о 
+5.5 +1 73 +5  1013.8  -1  758  299    +7.4       
21 13.01.12 190 (Ю) н/о    н/о 
+4.7 +2.4 85 +4  1013.7  757  300           
00 14.01.12 190 (Ю) н/о    н/о 
+4.2 +2.3 88 +5  1012.2  -1.5  756  300           
03 14.01.12 210 (ЮЗ) 10 км    10/8 1000 м кучево-дожд., средняя 
[Cb cap|Ac und]
+4.1 +2.7 91 +5  1010.3  -1.9  755  299           
06 14.01.12 190 (Ю) 10 км  в посл. час ливневой дождь  10/8 1000 м кучево-дожд., средняя 
[Cb cap|Ac und]
+4.5 +3.2 91 +4  1010  -0.3  755  299  +4    0.6     
09 14.01.12 200 (Ю) 4000 м  слаб. ливневой дождь  10/8 1000 м кучево-дожд., средняя 
[Cb cap|Ac und]
+5.8 +2.6 80 +4  1009  -0.9  754  297           
12 14.01.12 220 (ЮЗ) 4000 м  слаб. ливневой снег  10/10 200 м кучево-дожд. 
[Cb cap]
+1.1 +0.3 94 +2  1010.3  1.2  755  303           
15 14.01.12 110 (В) 10 км  в посл. час ливневой дождь  10/10 100 м кучево-дожд. 
[Cb cap]
+2.3 +1.6 95 +3  1010.5  1.2  755  301    +6.1       
18 14.01.12 140 (ЮВ) 4000 м  слаб. ливневой дождь  10/10 300 м кучево-дожд. 
[Cb cap]
+3.1 +1.6 90 +3  1009.5  -0.9  754  300    +6.1     
21 14.01.12 340 (С) 4000 м  слаб. ливневой дождь  10/10 200 м кучево-дожд. 
[Cb cap]
+2.5 +1.9 96 +3  1008.6  -0.9  754  301           
00 15.01.12 280 (З) 2000 м  ливневой дождь  10/10 200 м кучево-дожд. 
[Cb cap]
+1.6 +1.1 96 +1  1007.7  -1  753  301           
03 15.01.12 270 (З) 10 км  {ливн. осадки}  10/10 200 м кучево-дожд. 
[Cb cap]
+2 +0.2 88 1009.1  1.5  754  302           
06 15.01.12 260 (З) 10 км  {ливн. осадки}  3/3 1000 м кучево-дожд., средняя 
[Cb cap|Ac trans]
+1.1 -1.3 84 1011.6  2.4  756  303  +1.5       
09 15.01.12 270 (З) 10 км    8/6 1000 м кучево-дожд., верхняя 
[Cb cap|Ci ing]
+4.3 -1.1 68 +4  1013  1.4  757  300           
12 15.01.12 210 (ЮЗ) 10 км    10/4 1000 м средняя, верхняя 
[Cu med, cong|As trans|Cs]
+4.1 -2.7 61 +4  1013  757  301           
15 15.01.12 080 (В) 10 км    10/5 1000 м средняя, верхняя 
[Sc|As op|Ci]
+2.4 -2.8 68 +3  1013.5  0.5  757  303    +4.6       
18 15.01.12 130 (ЮВ) 10 км    6/0 средняя 
[As trans]
+2 -1.7 76 +3  1013.7  0.1  757  303    +4.6       
21 15.01.12 040 (СВ) 10 км    8/8 1000 м 
[Sc]
+0.9 -0.7 89 +2  1012.8  -0.8  757  304           
00 16.01.12 130 (ЮВ) 10 км    10/10 1000 м 
[Frnb|Ns]
+1.8 -0.4 85 +1  1012.6  -0.2  757  303           
06 16.01.12 110 (В) 10 км  {снег, дождь}  10/0 средняя 
[As op]
+1.7 -1.2 81 +1  1012.2  -0.1  756  303  +0.7    0.0     
09 16.01.12 070 (В) 10 км  в посл. час снег{ливн. осадки}  10/10 300 м 
[Frnb|Ns]
+1.6 -0.5 86 +1  1012.1  0.1  756  303           
12 16.01.12 080 (В) 10 км  {ливн. осадки, снег}  10/10 300 м 
[St]
+2.4 -1.1 78 +2  1010.7  -1.3  755  302           
15 16.01.12 060 (СВ) 10 км    10/10 300 м 
[St]
+1.9 -0.4 85 +3  1012  1.2  756  303    +2.7       
18 16.01.12 030 (СВ) 10 км    10/10 300 м 
[St]
+1.6 -0.3 87 +2  1012.9  0.9  757  303    +2.7  0.0     
21 16.01.12 090 (В) 10 км    10/10 600 м 
[St]
+1.2 -0.2 90 +2  1013.8  758  304           
00 17.01.12 160 (Ю) 10 км  в посл. час дождь  10/0 средняя 
[Ac und]
+1.5 -0.1 89 +2  1014.7  0.9  758  304           
03 17.01.12 220 (ЮЗ) 10 км  в посл. час снег{дождь}  10/10 600 м 
[Sc]
+1 +0.1 94 +2  1015.5  0.8  759  305           
06 17.01.12 тихо ()   2000 м  слаб. ливневой снег  10/10 100 м кучево-дожд. 
[Cb cap]
+0.6 -0 96 +1  1016.4  759  305  +0.9    0.3     
09 17.01.12 270 (З) 10 км  {ливн. осадки}  9/8 300 м средняя 
[St|Ac trans]
+2.2 +1.1 92 +3  1017.1  0.6  760  304           
12 17.01.12 290 (З) 10 км  слаб. ливневой дождь  10/10 200 м кучево-дожд. 
[Cb cap]
+2.3 +0.6 88 +3  1017.9  0.8  761  304           
15 17.01.12 290 (З) 10 км  {ливн. осадки}  9/9 300 м 
[Sc diur, vesp]
+1.9 +0.1 88 +3  1020.3  2.4  762  305    +2.7       
18 17.01.12 300 (СЗ) н/о    н/о 
+0.7 -1.5 85 1022.2  1.8  764  307    +2.7     
21 17.01.12 260 (З) 10 км    10/0 средняя, верхняя 
[Ac trans|Ci fib]
-0.4 -2.8 84 -1  1023.7  1.5  765  309           
00 18.01.12 200 (Ю) 10 км    6/3 1000 м верхняя 
[Sc|Ci]
-2 -3.3 91 -1  1025.3  1.5  766  311           
03 18.01.12 230 (ЮЗ) 10 км    1/0 средняя 
[Ac trans]
-2.7 -3.9 91 -2  1025.5  0.2  766  312           
06 18.01.12 тихо ()   10 км    5/0 верхняя 
[Ci fib]
-1.7 -2.9 91 -2  1026.7  1.1  767  311  -2.8    0.3     
09 18.01.12 060 (СВ) 10 км    5/0 средняя, верхняя 
[Ac trans|Ci fib]
+2.5 -2.6 69 +3  1026.1  -0.5  767  306           
12 18.01.12 110 (В) 10 км    4/3 1000 м верхняя 
[Sc|Ci fib]
+3.4 -3.1 62 +4  1025.4  -0.6  766  305           
15 18.01.12 100 (В) 10 км    10/3 1000 м средняя, верхняя 
[Sc|Ac trans|Ci fib]
+1.4 -1.5 81 +1  1025.7  0.3  766  307    +4       
18 18.01.12 100 (В) 10 км    10/8 300 м верхняя 
[St|Ci fib]
-0.8 -2.1 91 -2  1025.8  0.1  767  310    +4       
21 18.01.12 080 (В) 10 км    10/10 300 м 
[St]
-1.6 -2.9 91 -3  1025.2  -0.7  766  311           
00 19.01.12 060 (СВ) 10 км    10/10 300 м 
[St]
-0.8 -2.3 90 1024.6  -0.5  766  310           
03 19.01.12 060 (СВ) 10 км  в посл. час снег{дождь}  10/10 300 м 
[St]
-1 -2.3 91 -2  1023.8  -0.8  765  310           
06 19.01.12 070 (В) 10 км  {снег}  10/10 300 м 
[St]
-1.5 -3.8 84 -2  1024.7  0.8  766  311  -2         
09 19.01.12 110 (В) 10 км    10/10 300 м 
[St]
-0.3 -3.3 80 -1  1024.3  -0.3  765  309           
12 19.01.12 110 (В) 10 км    10/8 1000 м средняя 
[Sc|Ac und]
+1.3 -2.9 73 +2  1024  -0.3  765  307           
15 19.01.12 050 (СВ) 10 км    10/10 300 м 
[St]
+0.6 -2.1 82 +1  1024.9  0.8  766  308    +1.3       
18 19.01.12 070 (В) 10 км    10/10 300 м 
[St]
-0.7 -2.7 86 1025.5  0.6  766  310    +1.3       
21 19.01.12 030 (СВ) 10 км    10/10 300 м 
[St]
-1.4 -2.8 90 -1  1025.4  0.1  766  311           
00 20.01.12 050 (СВ) 4000 м  дымка  10/10 300 м 
[St]
-2 -3.4 90 -1  1025.3  -0.1  766  311           
03 20.01.12 040 (СВ) 4000 м    10/10 300 м 
[St]
-2.3 -3.7 90 -2  1025.4  0.1  766  312           
06 20.01.12 090 (В) 2000 м  дымка  10/10 300 м 
[St]
-2.9 -4.1 91 -4  1025.6  0.2  766  313  -2.5         
09 20.01.12 090 (В) 10 км    10/10 300 м 
[St]
-1.3 -4.3 80 -2  1025.7  0.1  766  311           
12 20.01.12 090 (В) 10 км    10/10 300 м 
[St]
-0.9 -4 80 -3  1025  -0.7  766  310           
15 20.01.12 100 (В) 10 км    8/8 300 м 
[St]
-1.4 -4 83 -3  1024.9  0.1  766  311    -0.7       
18 20.01.12 100 (В) 10 км    ясно 
-2.7 -4.9 85 -4  1025.2  0.3  766  312    -0.7       
21 20.01.12 080 (В) 10 км    ясно 
-3.7 -5 91 -5  1024.7  -0.5  766  313           
00 21.01.12 070 (В) 4000 м  дымка  ясно 
-5 -6.1 92 -6  1024.5  -0.2  765  315           
03 21.01.12 070 (В) 4000 м  дымка  ясно 
-5.4 -6.8 90 -7  1023.3  -1.1  765  315           
06 21.01.12 080 (В) 10 км    4/0 верхняя 
[Ci]
-6.2 -8.5 84 -8  1023.5  0.1  765  316  -5.5         
09 21.01.12 090 (В) 10 км    8/0 верхняя 
[Ci fib]
-1.1 -6.8 65 -2  1022.2  -1.2  764  310           
12 21.01.12 060 (СВ) 10 км    10/0 верхняя 
[Ci fib]
+0.2 -5 68 -2  1020.4  -1.8  762  308           
15 21.01.12 080 (В) 10 км    10/0 средняя, верхняя 
[Ac trans|Ci fib]
-1.5 -5.6 74 -4  1019.6  -0.8  762  309           
18 21.01.12 080 (В) 10 км    5/0 верхняя 
[Ci fib]
-2.8 -5.5 82 -5  1017.8  -1.8  761  310    +0.6       
21 21.01.12 060 (СВ) 10 км    ясно 
-4.4 -6.7 84 -7  1016.4  -1.4  759  312           
00 22.01.12 070 (В) 10 км    ясно 
-4.7 -7.1 83 -7  1015.5  -0.9  759  312           
03 22.01.12 070 (В) 10 км    3/0 средняя 
[Ac trans]
-4.3 -7.4 79 -7  1014.4  -1.1  758  311           
06 22.01.12 090 (В) 10 км    10/10 1000 м 
-3.3 -7.5 73 -5  1014.4  0.5  758  310  -4.7         
09 22.01.12 080 (В) 10 км    10/3 1000 м средняя, верхняя 
[Sc|Ac trans|Cs]
+0.2 -6.2 62 -2  1013.2  -1.3  757  306           
12 22.01.12 100 (В) 10 км    10/10 1000 м 
+1.7 -5.3 60 1012  -0.9  756  303           
15 22.01.12 090 (В) 10 км    10/8 1000 м средняя 
[Sc|Ac und]
+1 -4.6 66 -1  1012.4  0.2  757  304           
18 22.01.12 090 (В) 4000 м    10/10 300 м 
+0.1 -2.6 82 -1  1012.7  0.4  757  305    +2.2       
21 22.01.12 090 (В) 10 км  слаб. переохл. дождь (гололёд) [диам. гололёда 2 мм]  10/10 300 м 
-0.2 -2 88 -1  1013.6  0.9  757  306           
00 23.01.12 090 (В) 4000 м    10/10 200 м 
-0.2 -1.8 89 -1  1014.4  0.8  758  306           
03 23.01.12 120 (ЮВ) 10 км  {дождь} [диам. гололёда 3 мм]  10/10 100 м 
[St|Ns]
-0.5 -1.5 93 -1  1014.5  0.1  758  306           
06 23.01.12 100 (В) 10 км  {дождь}  10/10 300 м 
[St]
-0 -1.2 91 -2  1015.3  759  306  -0.5         
09 23.01.12 100 (В) 10 км  в посл. час дождь  9/8 300 м средняя 
[St|Ac und]
+1.1 +0.2 94 1015.5  0.2  759  304           
12 23.01.12 130 (ЮВ) 10 км  {дождь}  9/8 1000 м кучево-дожд., средняя 
[Cb cap|Ac trans]
+4.1 +2.1 87 +4  1015.5  759  301           
15 23.01.12 150 (ЮВ) 10 км    9/8 1000 м кучево-дожд., средняя 
[Cb cap|Ac trans]
+4.1 +1.8 85 +4  1016.5  760  301    +4.4       
18 23.01.12 130 (ЮВ) 4000 м  слаб. ливневой дождь  10/10 1000 м кучево-дожд. 
[Cb cap]
+3.2 +1.8 90 +4  1017.4  0.9  760  303    +4.4  0.1     
21 23.01.12 тихо ()   10 км    1/0 средняя 
[Ac trans]
+1.8 +0.8 93 +2  1018  0.5  761  304           
00 24.01.12 тихо ()   10 км  {ливн. осадки}  10/4 1000 м средняя 
[Sc|Ac und]
+1 +0.3 95 +1  1018.7  0.7  761  306           
03 24.01.12 050 (СВ) 10 км    9/4 1000 м средняя 
[Sc|Ac trans]
+0.7 +0.1 96 +1  1018.9  0.2  761  306           
06 24.01.12 060 (СВ) 4000 м  слаб. дождь  10/10 300 м 
[Frnb]
+0.7 -0.1 94 +1  1019.6  0.7  762  306  +0.3    0.3     
09 24.01.12 060 (СВ) 2000 м  слаб. снег  10/10 100 м 
[Frnb|Ns]
+0.3 -0.6 94 1020.5  0.7  762  307           
12 24.01.12 060 (СВ) 2000 м  дымка{снег, дождь}  10/10 200 м 
[St]
+0.2 -1 92 -1  1020.9  0.4  763  307           
15 24.01.12 070 (В) 2000 м  слаб. снег  10/10 300 м 
[St]
-1.9 -3.3 90 -3  1021.7  0.8  763  310    +1.2       
18 24.01.12 070 (В) 4000 м  дымка{снег}  10/10 300 м 
[St]
-4.2 -5.7 89 -6  1022.3  0.8  764  313    +1.2     
21 24.01.12 070 (В) 4000 м  дымка  10/10 200 м 
[St]
-5.9 -7.3 90 -7  1023  0.6  764  316           
00 25.01.12 060 (СВ) 2000 м  дымка  10/10 100 м 
[St]
-7.3 -8 95 -10  1022.6  -0.3  764  317           
03 25.01.12 060 (СВ) 0200 м  переохл. туман  ?/?  
-8.8 -9.7 93 -10  1022.1  -0.5  764  319           
06 25.01.12 060 (СВ) 4000 м  слаб. снег{туман}  10/10 200 м 
[St]
-10.9 -12.1 91 -13  1022.5  0.3  764  322  -8.8    0.0     
09 25.01.12 070 (В) 10 км  {снег}  3/0 средняя 
[Ac trans]
-7 -9.8 80 -10  1021.1  -1.4  763  316           
12 25.01.12 060 (СВ) 10 км  {снег}  4/0 средняя, верхняя 
[Ac trans|Ci fib]
-5.8 -10.4 70 -8  1020.1  -0.9  762  315           
15 25.01.12 070 (В) 10 км    8/0 средняя, верхняя 
[Ac trans|Ci fib]
-8.8 -13.1 71 -13  1020.6  0.5  763  319    -5.2       
18 25.01.12 050 (СВ) 10 км    ясно 
-11 -14.5 75 -14  1020.7  763  321    -5.2  0.0     
21 25.01.12 060 (СВ) 10 км    10/0 верхняя 
[Ci fib]
-12.2 -15.4 77 -16  1021.3  0.5  763  323           
00 26.01.12 060 (СВ) 10 км    ясно 
-12.6 -15.9 76 -16  1021.1  -0.2  763  324           
03 26.01.12 060 (СВ) 10 км    ясно 
-13.2 -16.7 75 -17  1021.2  0.1  763  324           
06 26.01.12 070 (В) 10 км    10/4 1000 м средняя, верхняя 
[Sc|Ac trans|Ci fib]
-13.1 -17.2 71 -18  1022.2  1.1  764  325  -13.4         
09 26.01.12 070 (В) 10 км    10/0 1000 м средняя 
[Sc|As op]
-10.1 -15.6 64 -14  1022.3  0.1  764  321           
12 26.01.12 080 (В) 10 км    10/3 1000 м средняя, верхняя 
[Sc|Ac trans|Cs]
-7.9 -14 62 -12  1022.1  -0.2  764  318           
15 26.01.12 050 (СВ) 10 км    10/5 1000 м средняя 
[Sc|Ac und]
-9.4 -14.4 67 -12  1023.1  0.8  764  320    -7.9       
18 26.01.12 060 (СВ) 10 км    10/3 1500 м средняя, верхняя 
[Sc|Ac trans|Ci fib]
-11.1 -15.7 69 -14  1023.8  0.7  765  323    -7.9       
21 26.01.12 060 (СВ) 10 км    5/0 верхняя 
[Ci fib]
-11 -16.2 66 -15  1023.8  765  323           
00 27.01.12 060 (СВ) 10 км    5/0 верхняя 
[Ci fib]
-12.8 -17 71 -16  1024  0.2  765  325           
03 27.01.12 060 (СВ) 10 км    8/0 средняя, верхняя 
[Ac trans|Ci fib]
-14.2 -18 73 -18  1024.1  0.1  765  327           
06 27.01.12 050 (СВ) 10 км    10/0 средняя, верхняя 
[Ac trans|Ci fib]
-13.7 -18.3 68 -18  1024.6  0.4  765  326  -14.2         
09 27.01.12 050 (СВ) 10 км    9/0 средняя, верхняя 
[Ac trans|Ci fib]
-9.3 -16.4 56 -12  1023.9  -0.5  765  321           
12 27.01.12 050 (СВ) 10 км    10/0 верхняя 
[Ci]
-8.6 -14.3 63 -12  1023.6  -0.3  765  319           
15 27.01.12 060 (СВ) 10 км    8/0 верхняя 
[Ci fib]
-11.3 -15.8 69 -15  1025.5  1.8  766  323    -8.2       
18 27.01.12 060 (СВ) 10 км    ясно 
-13 -16.6 74 -17  1026.5  767  326    -8.2       
21 27.01.12 050 (СВ) 10 км    ясно 
-13.6 -16.8 77 -17  1027.1  0.6  767  327           
00 28.01.12 050 (СВ) 10 км    ясно 
-14.4 -17.6 77 -17  1027.7  0.5  768  328           
03 28.01.12 040 (СВ) 10 км    ясно 
-15.2 -17.7 81 -17  1028.7  768  329           
06 28.01.12 020 (С) 10 км    ясно 
-14.2 -17.2 78 -14  1030  1.3  770  329  -15.2         
09 28.01.12 020 (С) 10 км    6/0 
[Cu hum]
-10.1 -15.7 63 -12  1030  770  323           
12 28.01.12 360 (С) 10 км    8/8 600 м 
[Sc]
-6.9 -14.8 53 -7  1028.8  -1.2  769  319           
15 28.01.12 020 (С) 10 км    4/4 1000 м 
[Sc]
-10 -15.4 65 -10  1029.9  -1.2  769  323    -6.9       
18 28.01.12 030 (СВ) 10 км    6/6 1000 м 
[Sc]
-11.2 -14.6 76 -11  1029.7  -0.3  769  325    -6.9       
21 28.01.12 030 (СВ) 10 км    ясно 
-12.5 -15.1 81 -12  1029.7  769  326           
00 29.01.12 тихо ()   10 км    ясно 
-13.3 -15.6 83 -13  1030.1  0.4  770  327           
03 29.01.12 060 (СВ) 10 км    ясно 
-13.7 -16 83 -14  1030.2  770  328           
06 29.01.12 тихо ()   10 км    ясно 
-12.5 -15.4 79 -13  1030.9  0.8  770  327  -13.8         
09 29.01.12 080 (В) 10 км  {снег}  8/6 600 м верхняя 
[Sc|Ci fib]
-9.2 -15 63 -11  1030.2  -0.7  770  322           
12 29.01.12 100 (В) 10 км  в посл. час ливневой снег  10/10 300 м кучево-дожд. 
[Cb cap]
-8.6 -13.6 67 -10  1029.3  -0.8  769  321           
15 29.01.12 070 (В) 10 км  {снег}  6/0 средняя, верхняя 
[Ac trans|Ci fib]
-9.4 -13.1 74 -11  1029.5  0.2  769  322    -8.4       
18 29.01.12 050 (СВ) 10 км    ясно 
-11.1 -14.8 74 -11  1028.6  0.2  768  324    -8.4       
21 29.01.12 070 (В) 10 км    4/0 средняя 
[Ac trans]
-10.7 -14.7 72 -13  1027.7  -0.9  768  323           
00 30.01.12 060 (СВ) 10 км    10/0 верхняя 
[Ci fib]
-10.8 -15.3 69 -13  1027.1  -0.9  767  323           
03 30.01.12 060 (СВ) 10 км    ясно 
-11.7 -15.8 72 -15  1026.6  -0.5  767  324           
06 30.01.12 070 (В) 10 км    5/0 верхняя 
[Ci fib]
-10.9 -15.9 66 -13  1027.1  0.5  767  323  -11.7         
09 30.01.12 070 (В) 10 км    3/0 средняя 
[Ac trans]
-6.1 -14.1 53 -9  1026.9  -0.2  767  317           
12 30.01.12 080 (В) 10 км    8/0 средняя 
[Ac trans]
-5 -14.3 48 -7  1026.6  -0.2  767  316           
15 30.01.12 060 (СВ) 10 км    8/3 1000 м средняя, верхняя 
[Sc|Ac trans|Cc]
-7.7 -13.3 64 -9  1027.5  0.8  768  320    -4.4       
18 30.01.12 050 (СВ) 10 км    10/3 1000 м средняя, верхняя 
[Sc|Ac trans|Ci fib]
-10.3 -13.7 76 -12  1027.6  0.1  768  323    -4.4       
21 30.01.12 050 (СВ) 10 км    9/9 1000 м средняя 
[Sc|Ac trans]
-11.6 -14.7 78 -14  1027.5  0.1  768  324           
00 31.01.12 050 (СВ) 10 км    10/0 верхняя 
[Ci fib]
-13.2 -16 79 -13  1026.5  -1.1  767  326           
03 31.01.12 060 (СВ) 10 км    10/4 1000 м средняя, верхняя 
[Sc|Ac trans|Ci fib]
-14.3 -17.4 77 -18  1025.2  -1.2  766  327           
06 31.01.12 060 (СВ) 10 км    10/0 средняя 
[Ac und]
-14.4 -17.8 75 -18  1024.4  -1.2  765  327  -14.3         
09 31.01.12 040 (СВ) 10 км    10/4 1000 м средняя 
[Sc|Ac und]
-12.9 -17.2 70 -15  1023.2  -1.1  764  325           
12 31.01.12 050 (СВ) 2000 м  снег  10/10 300 м 
[Frnb|Ns]
-12.7 -15.7 78 -16  1021.9  -1.4  763  324           
15 31.01.12 050 (СВ) 4000 м  слаб. снег  10/10 300 м 
[Frnb|Ns]
-13.8 -16.2 82 -17  1022  0.2  764  325    -12.5       
18 31.01.12 050 (СВ) 2000 м  снег  10/10 200 м 
[Frnb|Ns]
-14.6 -17 82 -18  1021.8  -0.2  763  326    -12.5     
21 31.01.12 060 (СВ) 2000 м  снег  10/10 300 м 
[Frnb|Ns]
-14.6 -16.8 83 -18  1022.2  0.4  764  326           
00 01.02.12 060 (СВ) 10 км  {снег}  10/1 1000 м средняя 
[Sc|As op]
-15.1 -17.5 82 -17  1021.9  -0.3  763  327           
03 01.02.12 040 (СВ) 10 км    10/0 средняя, верхняя 
[As op|Ci]
-15.7 -18.2 81 -16  1021.7  -0.2  763  328        неравномерный
сухой снег
100% 
06 01.02.12 040 (СВ) 10 км    10/0 средняя, верхняя 
[Ac trans|Ci]
-15.2 -18 79 -15  1022.3  0.6  764  327  -15.7       
09 01.02.12 040 (СВ) 4000 м  слаб. снег  10/10 600 м 
[Ns]
-13.5 -16.7 77 -16  1022.1  -0.2  764  325           
12 01.02.12 030 (СВ) 10 км  {снег}  10/4 600 м средняя 
[Sc|Ac und]
-12.3 -16.5 71 -14  1022  0.1  764  324           
Время (UTC), дата Ветер
(°,м/с) 
Видим.   Явления Облачность Т
(°С)
Тd
(°С)
f(%) Тe
(°С)
Pmin
(гПа)
dP
(гПа)
Po
(мм)
O2
(г/м3)
Тmin Tmax R s Состояние
почвы